AirNav   Air Wisconsin pilot careers
 
 483 users online  

2D1 Barber Airport
Alliance, Ohio, USA

GOING TO ALLIANCE?


FAA INFORMATION EFFECTIVE 21 JUNE 2018

Location

FAA Identifier: 2D1
Lat/Long: 40-58-11.8947N / 081-05-55.2011W
40-58.198245N / 081-05.920018W
40.9699708 / -81.0986670
(estimated)
Elevation: 1062 ft. / 324 m (estimated)
Variation: 07W (1985)
From city: 3 miles N of ALLIANCE, OH
Time zone: UTC -4 (UTC -5 during Standard Time)
Zip code: 44601

Airport Operations

Airport use: Open to the public
Activation date: 04/1947
Control tower: no
ARTCC: CLEVELAND CENTER
FSS: CLEVELAND FLIGHT SERVICE STATION
NOTAMs facility: CLE (NOTAM-D service available)
Attendance: 0800-DUSK
Wind indicator: yes
Segmented circle: no

Airport Communications

CTAF: 122.9
WX ASOS at CAK (16 nm W): PHONE 330-493-5260
WX AWOS-3 at POV (16 nm NW): 118.675 (330-298-9353)
WX ASOS at AKR (17 nm W): 126.825 (330-724-4237)
  • CTAF/MULTICOM 122.9MHZ

Nearby radio navigation aids

VOR radial/distance  VOR name  Freq  Var
ACOr155/9.5AKRON VOR/DME114.4004W
BSVr052/20.5BRIGGS VOR/DME112.4004W
YNGr226/28.9YOUNGSTOWN VORTAC109.0005W
CXRr180/32.9CHARDON VOR/DME112.7005W

 
NDB name  Hdg/Dist  Freq  Var  ID
AKRON122/14.436207WAK .- -.-
CASTLE273/31.127209WUCP ..- -.-. .--.

Airport Services

Fuel available: 100LL
Parking: hangars and tiedowns
Airframe service: MAJOR
Powerplant service: MAJOR
Bottled oxygen: NONE
Bulk oxygen: NONE

Runway Information

Runway 18/36

Dimensions: 3500 x 80 ft. / 1067 x 24 m
Surface: turf, in fair condition
RUNWAY 18  RUNWAY 36
Latitude: 40-58.420167N40-57.843500N
Longitude: 081-05.922500W081-05.917667W
Gradient: 0.5%0.5%
Traffic pattern: leftleft
Runway end identifier lights: nono
Obstructions: 75 ft. trees, 105 ft. from runway, 100 ft. right of centerline, 1:1 slope to clear
RWY 18: OBST CLNS SLOPE 4:1 DUE TO +10-FT ROAD 72-FT FM THLD ON CL.
8 ft. crops, 50 ft. left of centerline

Runway 9/27

Dimensions: 2088 x 130 ft. / 636 x 40 m
Surface: turf, in good condition
Runway edge markings: 09/27 & RWY 18/36 MARKED WITH CONES.
Gradient: E
RUNWAY 9  RUNWAY 27
Latitude: 40-58.311103N40-58.308028N
Longitude: 081-06.146792W081-05.693030W
Elevation: 1056.0 ft.1067.0 ft.
Gradient: 0.5% UP0.8%
Traffic pattern: leftleft
Runway end identifier lights: nono
Obstructions: 65 ft. trees, 220 ft. from runway, 90 ft. both sides of centerline, 3:1 slope to clear
RWY 27: +12-FT LUMBER AND TIMBER STOCKPILE OPERATION 300-FT FM THLD 150-FT R
55 ft. trees, 120 ft. left of centerline

Airport Ownership and Management from official FAA records

Ownership: Privately-owned
Owner: FORREST A BARBER
13820 UNION AVE NE
ALLIANCE, OH 44601
Phone (330) 495-5447
Manager: FORREST A BARBER
13820 UNION AVE NE
ALLIANCE, OH 44601
Phone (330) 495-5447

Airport Operational Statistics

Aircraft based on the field: 12
Single engine airplanes: 10
Helicopters: 2
    
Aircraft operations: avg 34/day *
96% local general aviation
3% transient general aviation
<1% military
* for 12-month period ending 01 September 2017

Additional Remarks

BE ALERT WHEN RYS ARE WET.
AEROBATIC PRACTICE AREA WI 1 NM SFC-5000'MSL, HRS IREG, CHECK NOTAMS.
OCNL GND LEVEL AEROBATIC PRACTICE.
CAUTION: R/C ACFT OPS IN AREA, CTAF/MULTICOM MONITORED 122.9MHZ.
PPR FOR NIGHT & WINTER OPNS CALL AMGR PHONE 330-495-5447.
CAUTION: PARACHUTE OPERATIONS ON & WITHIN 5NM OF APRT, SURFACE - 18,000 FT MSL, CHECK CAK APPCH & MONITOR CTAF/MULTICOM 122.9MHZ
FOR IFR CLEARANCE CTC CLEVELAND ARTCC (ZOB) 120.6/298.95 OR CALL ZOB 440-774-0485.
DEER, BIRDS & OTHER WILDLIFE ON & INVOF AIRPORT

Instrument Procedures

There are no published instrument procedures at 2D1.

Some nearby airports with instrument procedures:

3G6 - Tri-City Airport (6 nm SE)
38D - Salem Airpark Inc (11 nm E)
KCAK - Akron-Canton Regional Airport (16 nm W)
KPOV - Portage County Airport (16 nm NW)
KAKR - Akron Fulton International Airport (17 nm W)
1G3 - Kent State University Airport (18 nm NW)
4G4 - Youngstown Elser Metro Airport (19 nm E)
 
Loc | Ops | Rwys | IFR | FBO | Links
Com | Nav | Svcs | Stats | Notes

City of Findlay
 
Area around 2D1 (Barber Airport)
 
Road maps at: MapQuest Bing Google
 
Aerial photo
WARNING: Photo may not be current or correct
Aerial photo of 2D1 (Barber Airport)
Taken early June 2007
from the northwest, with 27 on the upper left and 36 on the upper right

Do you have a better or more recent aerial photo of Barber Airport that you would like to share? If so, please send us your photo.

 
Sectional chart

 
Airport distance calculator
Flying to Barber Airport? Find the distance to fly.

From to 2D1

Sunrise and sunset
Times for 17-Jul-2018
 Local
(UTC-4)
 Zulu
(UTC)
Morning civil twilight05:3509:35
Sunrise06:0810:08
Sunset20:5300:53
Evening civil twilight21:2501:25

Current date and time
Zulu (UTC)  17-Jul-2018 10:31:38
Local (UTC-4)  17-Jul-2018 06:31:38
 
METAR
KPOV 
16nm NW 
171017Z AUTO 28005KT 3SM SCT003 BKN014 BKN095 21/20 A2991 RMK AO2 T02130203 PWINO
KCAK 
16nm W 
170951Z 25005KT 5SM BR SCT006 OVC009 23/21 A2991 RMK AO2 SLP115 T02280211 $
KAKR 
17nm W 
171002Z AUTO 29004KT 8SM SCT008 23/22 A2990 RMK AO2 T02330217
KYNG 
26nm NE 
171015Z 26005KT 4SM BR BKN008 OVC016 22/22 A2990 RMK AO2 T02220222 $
KUCP 
31nm E 
170956Z AUTO 20003KT 6SM BR FEW010 BKN018 BKN027 22/22 A2990 RMK AO2 SLP130 T02220222
TAF
KCAK 
16nm W 
170532Z 1706/1806 21005KT P6SM BKN070 FM171000 30006KT P6SM SCT015 BKN035 TEMPO 1710/1714 BKN015 FM171600 35010KT P6SM SCT060
NOTAMs
Click for the latest NOTAMs
NOTAMs are issued by the DoD/FAA and will open in a separate window not controlled by AirNav.

 

 
 

Would you like to see your business listed on this page?

 If your business provides an interesting product or service to pilots, flight crews, aircraft, or users of the Barber Airport, you should consider listing it here.  To start the listing process, click on the button below
 
Add a business
 

Other Pages about Barber Airport

Update a link
 
Copyright © AirNav, LLC. All rights reserved. Privacy Policy  Contact